Wind_Speed
16 16 17 12 17 19 19 19 18 18 18 17 16 16 15 15 14 13 12 11 10 10 9 9 8 8 9 11 13 11 7 9
13 16 19 17 14 22 21 20 18 18 18 18 18 18 18 17 17 16 15 13 11 11 10 10 9 9 10 12 15 13 9 8
21 13 17 21 17 19 24 22 21 21 21 21 21 21 21 20 19 18 17 16 14 13 11 11 11 11 12 12 15 15 10 9
12 11 13 18 16 16 24 26 26 24 24 24 24 24 23 22 21 20 19 18 16 15 13 12 12 12 12 13 15 16 9 8
12 12 9 7 13 20 23 28 29 29 27 27 26 26 26 25 24 24 22 21 19 18 16 14 13 14 14 13 16 16 11 11
18 16 16 13 8 16 19 28 31 33 31 29 30 30 30 29 28 27 26 25 23 20 18 16 15 15 15 16 18 15 12 13
24 23 21 22 19 15 15 25 29 33 33 34 33 34 34 33 31 30 29 28 26 24 21 19 18 18 18 19 19 16 13 12
22 28 29 26 27 25 21 17 25 28 35 35 35 38 38 36 35 33 32 30 28 26 24 21 20 20 20 19 17 15 14 11
27 29 33 37 35 33 30 25 19 21 29 38 39 40 41 40 38 37 35 31 29 26 26 23 20 21 21 20 18 17 16 15
36 37 37 41 43 43 39 33 30 24 26 27 40 45 45 43 42 41 38 33 30 29 27 27 26 24 23 21 19 19 20 17
41 41 42 44 47 47 48 42 38 33 31 30 27 43 46 42 41 42 40 36 34 32 31 30 29 27 25 22 22 21 22 22
38 37 40 39 41 46 45 48 43 40 38 33 35 36 48 43 38 39 41 40 38 36 35 31 31 29 27 26 25 25 27 26
42 39 34 35 34 37 43 44 48 44 42 40 35 33 43 35 42 41 40 43 42 40 37 35 35 32 28 28 27 28 29 31
42 39 35 32 31 30 33 39 42 46 45 44 42 38 30 43 48 51 42 43 44 43 41 39 39 35 37 28 26 30 35 35
41 39 35 34 30 31 29 34 40 41 42 46 43 46 36 36 43 40 49 45 50 47 44 43 44 40 39 27 17 17 23 36
36 36 34 32 28 29 29 33 39 39 39 41 45 45 42 37 35 47 49 54 55 52 50 47 45 43 39 42 30 16 14 10
34 34 33 30 27 25 28 33 35 35 34 38 38 39 42 42 38 37 49 53 58 59 54 50 51 47 45 44 44 37 24 18
31 32 34 31 29 24 22 28 31 31 28 31 31 29 31 31 40 30 37 64 58 65 59 52 51 49 45 45 46 46 45 34
30 31 33 30 26 22 19 21 27 28 22 25 20 19 25 29 37 20 31 25 46 62 60 51 50 48 45 44 46 45 43 38
28 29 33 30 24 19 17 15 17 19 15 21 16 15 16 14 24 22 26 15 6 35 43 45 47 45 44 42 42 39 40 36
Wind_Direction
356 349 353 293 249 236 221 215 212 215 215 216 215 215 213 213 213 212 208 206 203 203 200 198 195 189 183 175 174 177 181 163
311 327 334 334 286 242 235 226 222 222 223 223 221 219 219 218 217 216 213 210 209 210 209 207 206 190 186 179 182 186 174 179
23 332 317 318 317 261 238 234 228 226 226 226 224 221 221 221 222 220 218 213 212 213 216 212 206 193 188 186 189 196 186 176
13 21 9 313 304 302 250 240 236 232 231 231 229 224 224 226 226 225 223 221 218 215 215 216 210 198 191 189 189 198 185 175
342 344 351 324 269 293 277 254 246 237 233 232 232 230 226 226 226 225 224 223 221 218 216 215 213 204 193 188 191 198 204 198
337 330 325 328 321 270 268 270 256 252 242 237 233 230 228 228 228 228 228 227 225 222 221 216 211 208 203 192 188 207 217 217
324 320 312 306 311 300 291 264 266 258 250 244 239 236 231 230 229 230 229 229 227 225 221 218 215 209 200 195 198 204 221 199
308 309 305 300 295 296 299 289 264 273 260 250 246 243 238 232 232 230 231 230 229 227 224 221 222 215 211 206 204 215 210 215
309 297 298 299 295 290 288 292 285 267 259 257 252 244 241 236 233 231 231 229 227 227 225 222 219 212 211 206 216 231 226 228
312 302 292 294 290 287 283 280 281 274 265 261 255 250 241 235 231 231 230 228 227 225 222 216 210 207 204 210 216 238 234 233
317 307 297 287 287 282 277 276 272 272 273 257 253 249 239 233 231 231 229 227 227 227 221 217 212 209 208 207 217 230 234 237
324 314 304 297 286 283 278 273 271 268 271 273 257 247 243 233 232 231 229 226 226 225 224 218 218 215 215 217 217 223 231 238
330 326 316 306 302 293 288 281 273 267 264 266 271 263 249 228 235 231 228 227 225 225 224 219 219 217 221 228 226 227 230 239
337 332 324 320 314 303 298 294 285 278 268 264 260 268 263 231 229 228 227 225 228 227 224 220 221 217 214 218 227 233 236 234
339 337 334 328 322 313 301 291 290 285 279 269 261 263 269 248 251 227 231 228 228 224 225 221 222 219 218 204 206 216 232 237
340 336 334 330 320 309 304 301 296 294 288 279 266 259 259 264 254 238 237 234 229 224 221 219 221 217 213 216 213 212 205 219
343 342 339 331 320 311 304 297 297 296 291 285 277 263 260 256 263 262 249 239 236 229 222 217 219 220 222 216 218 225 230 223
351 350 348 340 327 315 306 299 296 292 294 296 285 277 264 248 253 269 247 227 232 229 226 221 220 223 225 226 221 221 227 228
357 359 357 350 337 324 312 307 296 292 286 285 287 279 253 248 242 254 259 297 224 227 223 223 224 222 226 225 230 234 236 236
2 6 7 1 8 348 351 335 318 292 275 268 252 252 212 226 237 270 276 286 157 195 220 227 226 225 231 233 232 235 236 243
Height
1518 1518 1516 1515 1515 1515 1515 1516 1517 1518 1520 1521 1522 1523 1523 1524 1525 1526 1527 1529 1532 1533 1534 1535 1536 1537 1537 1538 1537 1538 1538 1539
1517 1518 1517 1516 1514 1514 1515 1516 1516 1517 1518 1520 1521 1521 1522 1522 1522 1523 1525 1527 1529 1531 1532 1533 1535 1535 1536 1537 1538 1536 1538 1539
1516 1517 1517 1516 1514 1513 1514 1514 1514 1515 1516 1517 1517 1519 1519 1520 1520 1521 1523 1524 1526 1528 1530 1532 1533 1534 1535 1536 1537 1536 1536 1538
1514 1512 1510 1512 1513 1512 1511 1511 1511 1512 1513 1514 1515 1516 1517 1517 1519 1520 1521 1523 1524 1526 1527 1530 1532 1533 1534 1534 1535 1536 1536 1537
1512 1511 1509 1507 1506 1510 1508 1509 1508 1507 1508 1509 1512 1514 1515 1515 1515 1516 1518 1520 1522 1524 1526 1527 1530 1532 1532 1534 1535 1536 1536 1536
1511 1510 1509 1507 1504 1503 1501 1503 1505 1505 1505 1505 1507 1508 1511 1511 1512 1513 1514 1516 1518 1520 1523 1524 1525 1529 1531 1531 1533 1534 1535 1535
1506 1506 1506 1504 1502 1500 1499 1497 1497 1499 1499 1500 1501 1503 1504 1506 1507 1508 1509 1511 1513 1515 1518 1520 1522 1524 1527 1529 1529 1531 1532 1534
1504 1501 1500 1500 1498 1497 1495 1493 1491 1491 1494 1494 1495 1497 1498 1500 1501 1502 1504 1506 1508 1511 1513 1516 1518 1520 1523 1526 1528 1529 1530 1530
1502 1498 1495 1492 1492 1491 1490 1489 1487 1486 1484 1487 1489 1494 1492 1493 1495 1496 1498 1500 1504 1506 1509 1511 1513 1515 1518 1521 1525 1526 1528 1528
1497 1494 1492 1486 1483 1483 1482 1483 1482 1480 1479 1479 1482 1484 1486 1484 1483 1486 1491 1495 1498 1500 1501 1505 1507 1509 1512 1516 1521 1524 1524 1525
1489 1486 1483 1480 1473 1472 1472 1473 1474 1474 1473 1472 1471 1474 1476 1476 1474 1478 1483 1487 1491 1494 1495 1498 1502 1505 1508 1511 1516 1520 1521 1521
1485 1481 1474 1470 1466 1460 1460 1459 1463 1465 1465 1464 1461 1461 1465 1464 1467 1469 1475 1479 1483 1487 1490 1492 1496 1501 1504 1506 1508 1514 1517 1516
1478 1472 1468 1462 1457 1453 1448 1447 1448 1452 1455 1455 1456 1450 1450 1441 1458 1463 1468 1470 1473 1479 1482 1484 1489 1493 1499 1502 1502 1506 1510 1511
1474 1469 1463 1458 1453 1448 1444 1439 1437 1437 1442 1444 1446 1444 1442 1444 1447 1451 1460 1460 1466 1470 1475 1479 1484 1486 1488 1493 1497 1500 1499 1502
1470 1465 1459 1453 1448 1443 1439 1434 1429 1428 1429 1431 1434 1436 1437 1438 1417 1435 1447 1448 1453 1458 1466 1470 1476 1480 1482 1484 1488 1487 1490 1493
1470 1463 1455 1450 1446 1439 1434 1429 1423 1422 1420 1420 1422 1425 1428 1433 1432 1435 1440 1443 1441 1443 1449 1455 1466 1470 1477 1478 1477 1475 1480 1484
1469 1461 1454 1448 1441 1435 1429 1423 1420 1416 1414 1412 1412 1414 1416 1422 1425 1427 1431 1432 1436 1440 1442 1442 1452 1459 1464 1468 1471 1470 1472 1476
1468 1460 1452 1444 1436 1431 1426 1420 1415 1411 1410 1407 1405 1406 1406 1408 1414 1418 1423 1399 1425 1428 1439 1440 1442 1450 1456 1463 1463 1463 1463 1469
1468 1459 1449 1441 1433 1427 1422 1416 1411 1407 1405 1402 1401 1400 1401 1399 1403 1414 1411 1396 1397 1425 1429 1435 1440 1445 1446 1452 1458 1460 1461 1463
1468 1459 1451 1442 1433 1424 1417 1412 1407 1403 1399 1397 1398 1396 1398 1395 1393 1407 1405 1405 1387 1407 1425 1430 1440 1441 1443 1444 1450 1455 1457 1459